User: anonymous   Login
Location: Albany
(35.0000°S, 118.0000°E)
Time: 11:46:10
(UTC-05:00)
Language:

JAS-1B - Orbit

View from above orbital plane
View from above orbital plane
View from above satellite
View from above satellite

Ground track
Ground track

The orbit data is extracted from the following two-line orbital elements,

1 20480U 90013C   17022.86019959  .00000014  00000-0  10618-3 0  9990
2 20480  99.0280 183.3891 0540269   0.3549 359.7839 12.83413856263077
Epoch (UTC): 22 January 2017 20:38:41
Eccentricity: 0.0540269
inclination: 99.0280°
perigee height: 911 km
apogee height: 1744 km
right ascension of ascending node: 183.3891°
argument of perigee: 0.3549°
revolutions per day: 12.83413856
mean anomaly at epoch: 359.7839°
orbit number at epoch: 26307

The dashed part of the orbit path shows where the satellite is in the earth's shadow,  

DLR